User: anonymous   Login
Location: Guilderland
(42.7045°N, 73.9115°W)
Time: 01:52:46
(UTC+00:00)
Language:

ERBS - Orbit

View from above orbital plane
View from above orbital plane
View from above satellite
View from above satellite

Ground track
Ground track

The orbit data is extracted from the following two-line orbital elements,

1 15354U 84108B   20090.82034593 +.00002040 +00000-0 +44558-4 0  9990
2 15354 057.0065 057.3606 0004136 238.1354 121.9301 15.49194619955375
Epoch (UTC): 30 March 2020 19:41:17
Eccentricity: 0.0004136
inclination: 57.0065°
perigee height: 416 km
apogee height: 422 km
right ascension of ascending node: 57.3606°
argument of perigee: 238.1354°
revolutions per day: 15.49194619
mean anomaly at epoch: 121.9301°
orbit number at epoch: 95537

The dashed part of the orbit path shows where the satellite is in the earth's shadow,  

DLR